Regional Weather Roundup
Issued by NWS Sterling, VA

Home | Current Version | Previous Version | Graphics & Text | Print | Product List | Glossary On
Versions: 1 2 3 4 5 6 7 8 9 10 11 12 13 14 15 16 17 18 19 20 21 22 23 24 25 26 27 28 29 30 31 32 33 34 35 36 37 38 39 40 41 42 43 44 45 46 47 48 49 50
000
ASUS41 KLWX 200510
RWRLWX

REGIONAL WEATHER ROUNDUP
NATIONAL WEATHER SERVICE BALTIMORE MD/WASHINGTON DC
100 AM EDT SAT SEP 20 2014

Note: "FAIR" indicates few or no clouds below 12,000 feet
with no significant weather and/or obstructions to visibility.
 TC=TEMPERATURE CELSIUS

 * =Non NWS site. Station does not report precipitation (e.g. rain,
    snow, etc.), thunder, or fog.

DCZ001-MDZ009-015-VAZ040>042-051-053>054-200600-
WASHINGTON METRO

CITY           SKY/WX    TMP DP  RH WIND       PRES   REMARKS
WASHINGTON NAT CLEAR     67  60  78 E3        30.29F
DULLES         MOCLDY    63  59  87 SE8       30.28S
ANDREWS AFB    CLEAR     62  60  93 NE3       30.28F
QUANTICO       PTCLDY    67  62  84 S7        30.29S
COLLEGE PARK*  CLEAR     63  61  94 CALM      30.29S
LEESBURG*      CLOUDY    66  63  88 SE8       30.30S
MANASSAS*      CLEAR     63  61  94 E5        30.28S
GAITHERSBURG*  CLOUDY    63  57  82 E5        30.33S

$$

MDZ006>007-011-014-200600-
BALTIMORE METRO

CITY           SKY/WX    TMP DP  RH WIND       PRES   REMARKS
BWI AIRPORT    CLOUDY    63  59  87 E7        30.30S
MD SCIENCE CTR   N/A     64  58  80 MISG      30.31S
MARTIN STATE   PTCLDY    63  61  94 CALM      30.32S
ANNAPOLIS      MOCLDY    65  60  84 E5        30.29F
FORT MEADE*    CLOUDY    59  57  94 E5        30.32S

$$

MDZ012-015-019>023-200600-
MARYLAND EASTERN SHORE

CITY           SKY/WX    TMP DP  RH WIND       PRES   REMARKS
OCEAN CITY     PTCLDY    70  60  70 SE16G23   30.29F
SALISBURY      CLEAR     63  57  81 CALM      30.28F
BAY BRIDGE AP*   N/A     61  59  94 E6        30.30R
CAMBRIDGE*     CLEAR     61  55  82 CALM      30.28F
EASTON*        CLEAR     62  62 100 CALM      30.32F

$$

MDZ017>025-200600-
SOUTHERN MARYLAND

CITY           SKY/WX    TMP DP  RH WIND       PRES   REMARKS
PATUXENT RIVER PTCLDY    66  61  84 SE6       30.28F
ST INIGOES     CLEAR     61  56  83 E3        30.28S
LEONARDTOWN*   CLEAR     61  59  94 E3        30.29F

$$

MDZ003>005-200600-
NORTH CENTRAL MARYLAND

CITY           SKY/WX    TMP DP  RH WIND       PRES   REMARKS
FREDERICK*     CLOUDY    66  61  82 SE7       30.31S
HAGERSTOWN APT CLOUDY    64  57  78 SE12      30.27S
WESTMINSTER*   CLOUDY    61  57  88 SE9       30.29F

$$

MDZ501>502-200600-
WESTERN MARYLAND

CITY           SKY/WX    TMP DP  RH WIND       PRES   REMARKS
OAKLAND*       PTCLDY    54 N/A N/A SE12      30.25F
CUMBERLAND*    CLOUDY    64  55  72 SW3       30.28F

$$

VAZ025>031-200600-
SHENANDOAH VALLEY

CITY           SKY/WX    TMP DP  RH WIND       PRES   REMARKS
WINCHESTER*    CLOUDY    64  59  82 SE8       30.26F
STAUNTON*      CLOUDY    60  56  86 CALM      30.29F

$$

WVZ021-048>050-054>055-200600-
EASTERN WEST VIRGINIA PANHANDLE

CITY           SKY/WX    TMP DP  RH WIND       PRES   REMARKS
MARTINSBURG    CLOUDY    66  57  72 SE6       30.27F
PETERSBURG*    MOCLDY    61  58  89 CALM      30.25F

$$

VAZ036>039-050-200600-
CENTRAL FOOTHILLS

CITY           SKY/WX    TMP DP  RH WIND       PRES   REMARKS
CHARLOTTESVILL CLOUDY    63  60  90 NW3       30.28S
ORANGE*        MOCLDY    61  55  82 CALM      30.29S

$$

VAZ055>057-200600-
NORTH AND CENTRAL PIEDMONT

CITY           SKY/WX    TMP DP  RH WIND       PRES   REMARKS
FREDERICKSBRG* CLEAR     61  60  96 E3        30.27S
STAFFORD*      CLEAR     59  59 100 CALM      30.32F

$$

NCZ024-NYZ072-PAZ021-071-VAZ022-071-200600-
OTHER REGIONAL OBSERVATIONS

CITY           SKY/WX    TMP DP  RH WIND       PRES   REMARKS
NEW YORK CITY  CLEAR     60  47  61 VRB5      30.36F
PHILADELPHIA   MOCLDY    59  54  83 E8        30.32F
PITTSBURGH     CLEAR     61  55  81 SE8       30.15S
ROANOKE        CLOUDY    61  58  90 CALM      30.29F
RICHMOND       MOCLDY    64  59  83 E6        30.27F
RALEIGH        CLEAR     64  57  78 E6        30.25S

$$

ANZ530>537-200600-
MARINE OBSERVATIONS

STATION/POSITION TIME  TEMP    WIND        PRES
                       AIR SEA DIR/SP/G
                 (UTC) (F)     (DEG/KT/KT) (MB)
THOMAS PT LIGHT  0500   66 74  110/ 10/ 11 1026.5F
BALT KEY BRIDGE  0500   64                 1026.0S
COVE POINT       0500   66                 1025.2F
LEWISETTA        0500   70                 1025.0R
SOLOMONS ISLAND  0400      76                N/A
PINEY POINT      0400          120/  8/ 10   N/A

$$



USA.gov is the U.S. government's official web portal to all federal, state and local government web resources and services.